Weather History for KOZR - December, 2014

Change the Weather History Date:

Sunday, December 21, 2014

  Actual Average Record
Temperature  
Mean Temperature 53 °F -  
Max Temperature 55 °F 58 °F 78 °F (1998)
Min Temperature 51 °F 36 °F 21 °F (1996)
Degree Days  
Heating Degree Days 12    
Growing Degree Days 3 (Base 50)    
Moisture  
Dew Point 51 °F    
Average Humidity 91    
Maximum Humidity 100    
Minimum Humidity 82    
Precipitation  
Precipitation 0.00 in - - ()
Sea Level Pressure  
Sea Level Pressure 30.07 in    
Wind  
Wind Speed 7 mph (NE)    
Max Wind Speed 9 mph    
Max Gust Speed -    
Visibility 7 miles    
Events      
Averages and records for this station are not official NWS values.
T = Trace of Precipitation, MM = Missing Value Source: NWS Daily Summary

Daily Weather History Graph

Daily Weather History Graph

Search for Another Location

Airport or City:

Trip Planner

Search our weather history database for the weather conditions in past years. The results will help you decide how hot, cold, wet, or windy it might be!

Date:

Astronomy

Dec. 21, 2014 Rise Set
Actual Time 6:37 AM CST 4:44 PM CST
Civil Twilight 6:10 AM CST 5:11 PM CST
Nautical Twilight 5:40 AM CST 5:41 PM CST
Astronomical Twilight 5:10 AM CST 6:11 PM CST
Moon 5:57 AM CST (12/21) 4:46 PM CST (12/21)
Length of Visible Light 11h 00m
Length of Day
10h 06m
Waning Crescent, 0% of the Moon is Illuminated
Dec 21
Waning Crescent
Dec 21
New
Dec 28
First Quarter
Jan 4
Full
Jan 13
Last Quarter

Hourly Weather History & Observations

Time (CST) Temp. Dew Point Humidity Pressure Visibility Wind Dir Wind Speed Gust Speed Precip Events Conditions
1:58 AM 52.5 °F 49.5 °F 89% 30.14 in 10.0 mi NE 8.1 mph - N/A   Overcast
2:13 AM 51.8 °F 50.0 °F 94% 30.13 in 10.0 mi NNE 6.9 mph - N/A   Overcast
2:23 AM 51.8 °F 50.0 °F 94% 30.13 in 10.0 mi NE 5.8 mph - N/A   Overcast
2:58 AM 52.5 °F 49.5 °F 89% 30.13 in 10.0 mi NNE 8.1 mph - N/A   Overcast
3:53 AM 53.6 °F 50.0 °F 88% 30.11 in 10.0 mi NE 9.2 mph - N/A   Overcast
3:58 AM 52.7 °F 49.6 °F 89% 30.11 in 10.0 mi NE 8.1 mph - N/A   Overcast
4:58 AM 52.9 °F 49.8 °F 89% 30.12 in 10.0 mi NE 9.2 mph - N/A   Overcast
5:58 AM 53.2 °F 49.8 °F 88% 30.13 in 10.0 mi NE 8.1 mph - N/A   Overcast
6:58 AM 53.4 °F 50.0 °F 88% 30.12 in 10.0 mi NE 8.1 mph - N/A   Overcast
7:28 AM 53.6 °F 50.0 °F 88% 30.12 in 10.0 mi NE 6.9 mph - N/A   Overcast
7:33 AM 53.6 °F 50.0 °F 88% 30.12 in 10.0 mi NE 8.1 mph - N/A   Overcast
7:58 AM 54.0 °F 50.0 °F 86% 30.13 in 10.0 mi NE 6.9 mph - N/A   Overcast
8:23 AM 55.4 °F 50.0 °F 82% 30.12 in 10.0 mi ENE 9.2 mph - N/A   Overcast
8:28 AM 55.4 °F 50.0 °F 82% 30.13 in 10.0 mi ENE 4.6 mph - N/A   Overcast
8:58 AM 54.9 °F 50.2 °F 84% 30.14 in 10.0 mi NE 8.1 mph - N/A   Overcast
10:13 AM 55.4 °F 50.0 °F 82% 30.12 in 10.0 mi NE 9.2 mph - N/A   Overcast
11:13 AM 55.4 °F 51.8 °F 88% 30.10 in 9.0 mi ENE 6.9 mph - N/A   Overcast
11:23 AM 55.4 °F 51.8 °F 88% 30.10 in 10.0 mi ENE 5.8 mph - N/A   Overcast
11:58 AM 55.8 °F 51.1 °F 84% 30.10 in 10.0 mi ENE 4.6 mph - N/A   Overcast
12:28 PM 55.4 °F 51.8 °F 88% 30.07 in 4.0 mi ENE 8.1 mph - N/A   Overcast
1:36 PM 55.4 °F 51.8 °F 88% 30.04 in 4.0 mi East 5.8 mph - N/A   Overcast
1:41 PM 55.4 °F 51.8 °F 88% 30.04 in 4.0 mi ENE 5.8 mph - N/A   Overcast
1:58 PM 54.5 °F 52.5 °F 93% 30.05 in 3.0 mi ENE 9.2 mph - N/A   Overcast
2:21 PM 55.4 °F 51.8 °F 88% 30.04 in 7.0 mi ENE 4.6 mph - N/A   Overcast
2:36 PM 55.4 °F 51.8 °F 88% 30.03 in 5.0 mi ENE 8.1 mph - N/A   Overcast
2:51 PM 55.4 °F 51.8 °F 88% 30.03 in 10.0 mi ENE 6.9 mph - N/A   Overcast
2:58 PM 54.5 °F 52.5 °F 93% 30.04 in 10.0 mi ENE 5.8 mph - N/A   Overcast
3:37 PM 55.4 °F 51.8 °F 88% 30.03 in 5.0 mi NE 5.8 mph - N/A   Overcast
3:58 PM 54.1 °F 52.3 °F 94% 30.05 in 4.0 mi NE 5.8 mph - N/A   Overcast
4:28 PM 53.6 °F 51.8 °F 94% 30.05 in 4.0 mi NE 5.8 mph - N/A   Overcast
4:33 PM 53.6 °F 51.8 °F 94% 30.05 in 4.0 mi NE 5.8 mph - N/A   Overcast
4:43 PM 53.6 °F 51.8 °F 94% 30.05 in 3.0 mi NE 5.8 mph - N/A   Overcast
4:48 PM 53.6 °F 51.8 °F 94% 30.05 in 2.5 mi NE 5.8 mph - N/A   Overcast
4:58 PM 53.6 °F 52.0 °F 94% 30.06 in 3.0 mi NE 4.6 mph - N/A   Overcast
5:58 PM 53.2 °F 51.8 °F 95% 30.05 in 6.0 mi East 8.1 mph - N/A   Overcast
6:28 PM 53.6 °F 51.8 °F 94% 30.05 in 6.0 mi East 5.8 mph - N/A   Overcast
6:58 PM 52.9 °F 51.6 °F 95% 30.06 in 7.0 mi East 5.8 mph - N/A   Overcast
7:13 PM 53.6 °F 51.8 °F 94% 30.04 in 7.0 mi East 8.1 mph - N/A   Overcast
7:58 PM 52.7 °F 51.3 °F 95% 30.05 in 10.0 mi ENE 4.6 mph - N/A   Overcast
8:58 PM 52.5 °F 51.1 °F 95% 30.04 in 7.0 mi ENE 5.8 mph - N/A   Overcast
9:58 PM 52.3 °F 50.9 °F 95% 30.03 in 5.0 mi ENE 8.1 mph - N/A   Overcast
10:33 PM 51.8 °F 51.8 °F 100% 30.02 in 2.5 mi ENE 5.8 mph - N/A   Overcast
10:43 PM 51.8 °F 51.8 °F 100% 30.04 in 3.0 mi NNE 4.6 mph - N/A   Overcast
10:58 PM 52.3 °F 50.9 °F 95% 30.02 in 3.0 mi ENE 5.8 mph - N/A   Overcast
11:23 PM 51.8 °F 51.8 °F 100% 30.01 in 4.0 mi NE 5.8 mph - N/A   Overcast
11:58 PM 52.0 °F 50.9 °F 96% 30.01 in 4.0 mi ENE 5.8 mph - N/A   Overcast